This is the latest recevied weather packets stored in our database for station/object VA3JLF-1. If no packets are shown the sender has not sent any weather packets the latest 10 day(s).
| Time | Temp. | Humidity | Pressure | Rain* | Wind** | Luminosity | Snow |
|---|---|---|---|---|---|---|---|
| 1777529158 | 7.22° C | 99% | 1003.7 hPa | 0.25 mm | - | - | - |
| 1777528558 | 7.22° C | 99% | 1003.5 hPa | 0 mm | - | - | - |
| 1777527958 | 7.22° C | 99% | 1003.4 hPa | 0 mm | - | - | - |
| 1777527358 | 7.22° C | 99% | 1003.3 hPa | 0 mm | - | - | - |
| 1777526758 | 7.22° C | 99% | 1003.5 hPa | 0 mm | - | - | - |
| 1777526157 | 7.22° C | 99% | 1003.5 hPa | 0 mm | - | - | - |
| 1777525558 | 7.22° C | 99% | 1003.5 hPa | 0 mm | - | - | - |
| 1777524958 | 7.22° C | 99% | 1003.7 hPa | 0.25 mm | - | - | - |
| 1777524358 | 7.22° C | 99% | 1003.4 hPa | 0.51 mm | - | - | - |
| 1777523758 | 7.78° C | 99% | 1003.3 hPa | 0.76 mm | - | - | - |
| 1777523158 | 7.22° C | 99% | 1003.3 hPa | 1.02 mm | - | - | - |
| 1777522557 | 7.22° C | 99% | 1003.2 hPa | 1.52 mm | - | - | - |
| 1777521957 | 7.78° C | 99% | 1003.3 hPa | 1.78 mm | - | - | - |
| 1777521358 | 7.78° C | 99% | 1003.2 hPa | 1.78 mm | - | - | - |
| 1777520758 | 7.78° C | 99% | 1003.2 hPa | 2.03 mm | - | - | - |
| 1777520157 | 7.78° C | 99% | 1003.3 hPa | 2.29 mm | - | - | - |
| 1777519557 | 8.33° C | 99% | 1003.3 hPa | 2.54 mm | - | - | - |
| 1777518958 | 8.33° C | 99% | 1003.1 hPa | 2.79 mm | - | - | - |
| 1777518358 | 8.89° C | 99% | 1003.3 hPa | 2.79 mm | - | - | - |
| 1777517757 | 8.89° C | 99% | 1003.1 hPa | 2.79 mm | - | - | - |
| 1777517158 | 8.89° C | 99% | 1003.3 hPa | 2.79 mm | - | - | - |
| 1777516558 | 8.89° C | 99% | 1003.3 hPa | 2.79 mm | - | - | - |
| 1777515959 | 8.89° C | 99% | 1003.2 hPa | 2.79 mm | - | - | - |
| 1777515357 | 8.89° C | 99% | 1003.2 hPa | 2.54 mm | - | - | - |
| 1777514757 | 9.44° C | 99% | 1003.2 hPa | 2.29 mm | - | - | - |
* Rain latest hour (hover to see other rain measurements)
** Current wind speed in m/s (hover to see current wind gust speed)